Weather Roundup
Issued by NWS

Home | Current Version | Previous Version | Graphics & Text | Print | Product List | Glossary Off
Versions: 1 2 3 4 5 6 7 8 9 10 11 12 13 14 15 16 17 18 19 20 21 22 23 24 25 26 27 28 29 30 31 32 33 34 35 36 37 38 39 40 41 42 43 44 45 46 47 48 49 50

000
NZUS93 KARX 270859
HRRWXR

CURRENT HOURLY OBSERVATIONS ACROSS
MUCH OF THE UPPER MISSISSIPPI VALLEY
NATIONAL WEATHER SERVICE LA CROSSE WI
400 AM CDT SUN JUL 27 2014


...SOUTHEAST MINNESOTA...


CITY           SKY/WX    TMP DP  RH WIND       PRES   REMARKS
ROCHESTER      CLEAR     65  60  84 W8        29.85S
ROCHESTER/MAYO FAIR      68  58  69 W10G16    29.83S
WINONA         CLEAR     70  64  83 NW7       29.79S
AUSTIN         CLEAR     66  61  82 W6        29.85F
ALBERT LEA     CLEAR     64  61  88 W5        29.86F
DODGE CENTER   CLEAR     63  61  94 W7        29.84F
PRESTON        CLEAR     65  65  99 W9        29.84S
OWATONNA       CLEAR     64  55  72 W6        29.84F
FARIBAULT      CLEAR     70  54  56 W9        29.83F
$$

...ELSEWHERE IN MINNESOTA...


CITY           SKY/WX    TMP DP  RH WIND       PRES   REMARKS
MINNEAPOLIS    CLEAR     69  55  60 W8        29.78F
INTNL FALLS    NOT AVBL
DULUTH         CLOUDY    62  57  83 W7        29.71F
RED WING       CLEAR     66  57  72 W8        29.78S
REDWOOD FALLS  CLEAR     65  55  70 W14       29.87S
MANKATO        CLEAR     66  54  63 W13       29.85S
WORTHINGTON    CLEAR     61  55  82 W8        29.95S
FAIRMONT       CLEAR     66  52  59 W12       29.89F
$$

...SOUTHWEST WISCONSIN...


CITY           SKY/WX    TMP DP  RH WIND       PRES   REMARKS
LA CROSSE      PTCLDY    70  65  84 W3        29.78S
PRAIRIE DU CHI CLEAR     71  65  82 N3        29.80S
BOSCOBEL       FOG       67  66  97 SW5       29.79F VSB 1/4
LONE ROCK      FOG       66  63  88 CALM      29.78F VSB 1/2
PLATTEVILLE    CLEAR     67  65  93 SW5       29.83S
FORT MC COY    CLEAR     65  63  90 SW5       29.78F
CAMP DOUGLAS   CLEAR     63  63 100 W2        29.77S
VIROQUA        FAIR      65  65 100 SW6       29.81S
WIS DELLS      CLEAR     67  64  89 SW3       29.78S
$$

...ELSEWHERE IN WISCONSIN...


CITY           SKY/WX    TMP DP  RH WIND       PRES   REMARKS
MILWAUKEE      MOCLDY    71  68  90 S6        29.76F
MADISON        PTCLDY    71  67  87 VRB5      29.76F
GREEN BAY      MOCLDY    68  66  93 SW5       29.71F
EAU CLAIRE     NOT AVBL
BLACK RVR FLS  FOG       58  58 100 CALM      29.76F VSB 1/2
MEDFORD        PTCLDY    63  61  93 CALM      29.76F
WAUSAU         PTCLDY    65  62  90 NW8       29.73F
WIS RAPIDS     FOG       60  59  96 MISG      29.77F VSB 1/4
MARSHFIELD     PTCLDY    64  63  96 W3        29.75F
RICE LAKE      CLEAR     64  55  75 SW5       29.77F
$$

...NORTHEAST IOWA...


CITY           SKY/WX    TMP DP  RH WIND       PRES   REMARKS
WATERLOO       CLEAR     69  65  86 W8        29.84S
DUBUQUE        CLEAR     68  66  93 W7        29.83F
DECORAH        CLOUDY    68  64  88 VRB5      29.83S
MASON CITY     CLEAR     64  61  90 W8        29.90R
CHARLES CITY   PTCLDY    66  64  94 W7        29.86S
OELWEIN        CLEAR     66  66 100 W7        29.85F FOG
$$

...ELSEWHERE IN IOWA...


CITY           SKY/WX    TMP DP  RH WIND       PRES   REMARKS
DES MOINES     CLEAR     71  68  90 W3        29.89S
IOWA CITY      CLEAR     68  68 100 S3        29.85F FOG
FORT DODGE     CLEAR     66  63  88 CALM      29.92S
MARSHALLTOWN   FOG       67  67 100 W5        29.86S VSB 1/4
CEDAR RAPIDS   CLEAR     67  66  97 W5        29.84S FOG
$$

...NORTHERN ILLINOIS...


CITY           SKY/WX    TMP DP  RH WIND       PRES   REMARKS
CHICAGO-OHARE  PTCLDY    72  67  84 SW7       29.78F
DUPAGE         PTCLDY    67  66  97 S3        29.80S FOG
CHICAGO-MIDWAY PTCLDY    73  70  90 SW7       29.79S FOG
MOLINE         FOG       67  66  97 W3        29.82F VSB 3/4
ROCKFORD       PTCLDY    69  67  93 SW5       29.82S FOG
STERLING       CLOUDY    68  66  94 W5        29.82F VSB 1/4
PEORIA         FOG       74  71  91 CALM      29.81F VSB 1/4
$$

NOTE: "FAIR" INDICATES FEW OR NO CLOUDS BELOW 12,000 FEET WITH NO
SIGNIFICANT WEATHER AND/OR OBSTRUCTIONS TO VISIBILITY. WIND
SPEEDS ARE IN MILES-PER-HOUR.



USA.gov is the U.S. government's official web portal to all federal, state and local government web resources and services.